Ana Sayfa
METAR-TAF:

METAR-TAF

Havaalanları :

Gaylord Regional Airport (Otsego County Airport)

Gaylord, Michigan, Amerika Birleşik Devletleri

Enlem: 45-00-59N, Boylam: 084-41-20W, yükseklik: 404 m

Güncel hava durumu gözlemi

Rapor saat 19:02 UTC de 21 dakika önce yapıldı.
Rüzgar güneydan 10 kt
Sıcaklık -3°C
Nem 80%
Basınç 1024 hPa
Görüş mesafesi: 16.1 km
1900 ft yükseklikte parçalı çok bulutlu

METAR: KGLR 071902Z AUTO 18010KT 10SM BKN019 M03/M06 A3023 RMK AO2 T10281061

Saat: 14:23 (19:23 UTC)


TAF: eksik

4.000'den fazla havaalanı için hava durumu gözlemleri ve tahminleri (METAR ve TAF raporları).

Kullanılabilir istasyonlar harita üzerinde sarı ve kırmızı noktalarla gösterilir.

İstasyonun adını görmek için fareyi noktanın üzerinde gezdirin.

Sonrasında hava gözlem ve tahminlerini görmek için tıklayın.

Haritayı değiştirmek için: yaklaştırmak için siyah artı işaretli yeşil düğmeye ve uzaklaştırmak için de eksi işaretli düğmeye hızla tıklayın; bitişik haritalar için yeşil okları kullanın.


METAR-TAF: